Regional Weather Roundup
Issued by NWS

Home | Current Version | Previous Version | Graphics & Text | Print | Product List | Glossary Off
Versions: 1 2 3 4 5 6 7 8 9 10 11 12 13 14 15 16 17 18 19 20 21 22 23 24 25 26 27 28 29 30 31 32 33 34 35 36 37 38 39 40 41 42 43 44 45 46 47 48 49 50

000
ASUS43 KMKX 250900
RWRWI

WISCONSIN REGIONAL WEATHER ROUNDUP
NATIONAL WEATHER SERVICE MILWAUKEE/SULLIVAN WI
300 AM CST SUN JAN 25 2015

NOTE: "FAIR" INDICATES FEW OR NO CLOUDS BELOW 12,000 FEET WITH NO
SIGNIFICANT WEATHER AND/OR OBSTRUCTIONS TO VISIBILITY.

WIZ001-002-006>008-014>016-023>028-251000-
NORTHWEST WISCONSIN

CITY           SKY/WX    TMP DP  RH WIND       PRES   REMARKS
SUPERIOR ARPT  CLOUDY    22  15  74 E14G22    29.93R WCI   9
ASHLAND        CLOUDY    19  10  68 E7        29.92R WCI  10
HAYWARD        MOCLDY    17  10  74 NE8G18    29.86R WCI   7
SIREN          CLOUDY    21  14  73 E12       29.85R WCI   9
CUMBERLAND     CLOUDY    23  18  80 NE10      29.80R WCI  12
RICE LAKE      CLOUDY    24  17  76 N14       29.82R WCI  11
CHETEK         CLOUDY    24  17  72 N10G18    29.80R WCI  14
LADYSMITH      CLOUDY    22  17  79 NE13      29.83R WCI  10
EAU CLAIRE     NOT AVBL
MENOMONIE      CLOUDY    31  21  68 NE15G23   29.77R WCI  20
NEW RICHMOND   CLOUDY    29  21  73 NE13G21   29.78R WCI  18
OSCEOLA        CLOUDY    28  21  75 NE14      29.82R WCI  17
$$

WIZ003>005-009-010-017-018-251000-
NORTH CENTRAL WISCONSIN

CITY           SKY/WX    TMP DP  RH WIND       PRES   REMARKS
MANITOWISH WTR MOCLDY    12   7  82 CALM      29.83R
ARBOR VITAE    MOCLDY    16  10  77 CALM      29.82R
WOODRUFF       MOCLDY    16  10  77 CALM      29.82R
RHINELANDER    CLOUDY    14   7  73 NE8       29.83R WCI   3
EAGLE RIVER    CLOUDY    14   7  73 NE10      29.82R WCI   1
LAND O LAKES   FLURRIES  11   8  89 N3        29.84R
PHILLIPS       CLOUDY    14   9  79 NE13G18   29.82R WCI   0
TOMAHAWK       CLOUDY    15   9  76 NE8       29.83R WCI   4
MEDFORD        CLOUDY    22  16  79 NE9       29.77R WCI  11
MERRILL        CLOUDY    20  14  77 NE14G21   29.80R WCI   7
$$

WIZ029-030-035-036-043>047-251000-
CENTRAL WISCONSIN

CITY           SKY/WX    TMP DP  RH WIND       PRES   REMARKS
WAUSAU         CLOUDY    22  14  71 NE14      29.79R WCI   9
MOSINEE        CLOUDY    27  21  80 NE14      29.79R WCI  15
MARSHFIELD     CLOUDY    28  23  81 E14G21    29.76R WCI  17
STEVENS POINT  CLOUDY    24  18  80 E12       29.79R WCI  13
WAUPACA        CLOUDY    24  14  67 NE13G18   29.82R WCI  12
WAUTOMA        NOT AVBL
WISC RAPIDS    CLOUDY    26  19  74 E17G23    29.79R WCI  13
CAMP DOUGLAS   FLURRIES  28  28 100 E13       29.75R WCI  18
$$

WIZ011>013-019>022-031-037>040-048>050-251000-
NORTHEAST WISCONSIN

CITY           SKY/WX    TMP DP  RH WIND       PRES   REMARKS
ANTIGO         CLOUDY    16  11  81 NE13      29.81R WCI   2
SHAWANO        CLOUDY    23  14  69 NE12G17   29.86R WCI  11
OCONTO         CLOUDY    21  12  69 MISG      29.86R
STURGEON BAY   CLOUDY    19  10  68 N14       29.86S WCI   6
GREEN BAY      CLOUDY    21  14  74 NE21      29.85R WCI   5
MANITOWOC      NOT AVBL
APPLETON       CLOUDY    21  14  73 NE20      29.81R WCI   6
CLINTONVILLE   CLOUDY    21  14  73 NE12G17   29.84R WCI   9
OSHKOSH        CLOUDY    22  15  75 NE18      29.81R WCI   7
$$

WIZ032>034-041-042-053>061-251000-
SOUTHWEST WISCONSIN

CITY           SKY/WX    TMP DP  RH WIND       PRES   REMARKS
LA CROSSE      CLOUDY    36  30  79 E17G24    29.70R WCI  26
SPARTA         FLURRIES  31  29  90 NE13G20   29.73R WCI  22
VIROQUA        CLOUDY    33  32  97 E16       29.66R WCI  22
BOSCOBEL       LGT SNOW  35  30  82 NE8       29.68R WCI  29
PRAIRIE DU CHI CLOUDY    35  31  84 E7        29.64R WCI  29
PLATTEVILLE    CLOUDY    33  31  94 NE16      29.63S WCI  23
$$

WIZ056-057-062-063-064-067-068-251000-
SOUTH CENTRAL WISCONSIN

CITY           SKY/WX    TMP DP  RH WIND       PRES   REMARKS
REEDSBURG      CLOUDY    30  28  92 NE14G20   29.71R WCI  19
BARABOO/DELLS  CLOUDY    29  26  89 E15G23    29.72R WCI  17
LONE ROCK      CLOUDY    34  30  86 E18       29.70R WCI  23
MINERAL POINT  CLOUDY    34  32  93 E9        29.65R WCI  26
MADISON        CLOUDY    30  26  85 NE16      29.71R WCI  19
MIDDLETON      CLOUDY    33  31  92 E12G17    29.70R WCI  24
WATERTOWN      CLOUDY    28  24  85 NE14      29.73R WCI  17
MONROE         CLOUDY    32  32 100 E9G17     29.65R WCI  24
JANESVILLE     CLOUDY    34  32  93 E17       29.68R WCI  23
$$

WIZ051-052-058>065-066-070>072-251000-
SOUTHEAST WISCONSIN

CITY           SKY/WX    TMP DP  RH WIND       PRES   REMARKS
MILWAUKEE      FLURRIES  30  24  78 NE17G25   29.74R WCI  18
WAUKESHA       CLOUDY    28  25  86 NE12G18   29.74R WCI  18
MILWAUKEE/TIMM CLOUDY    30  23  74 NE12G22   29.75R WCI  21
RACINE         CLOUDY    31  26  82 NE18      29.74R WCI  19
BURLINGTON     CLOUDY    29  28  94 NE12      29.71R WCI  20
KENOSHA        CLOUDY    31  29  92 NE17      29.71R FOG     WCI  19
FOND DU LAC    CLOUDY    25  18  74 NE12G23   29.80R WCI  14
SHEBOYGAN      CLOUDY    26  20  77 NE18      29.79R WCI  13
WEST BEND      CLOUDY    28  23  80 NE20      29.75R WCI  15
JUNEAU         CLOUDY    27  21  80 NE16G24   29.75R WCI  14
$$

LSZ147-162-251000-
LAKE SUPERIOR

STATION/POSITION TIME  TEMP    WIND        PRES    WAVE
                       AIR SEA DIR/SP/G            HT/PER
                 (UTC) (F)     (DEG/KT/KT) (MB)    (FT/S)
DEVILS ISLAND    0800   20      50/ 20/ 23 1014.8R
PORT WING        0800   20      60/  8/ 12 1013.2R
SAXON HARBOR     0800   18      CALM  /  5 1013.2
$$

LMZ867-665-643>646-251000-
LAKE MICHIGAN

STATION/POSITION TIME  TEMP    WIND        PRES    WAVE
                       AIR SEA DIR/SP/G            HT/PER
                 (UTC) (F)     (DEG/KT/KT) (MB)    (FT/S)
NORTHPORT PIER   0804   21     360/ 14/ 17 1011.9R
SISTER BAY       0713   20      30/  8/ 11   N/A
KEWAUNEE LAKESHO 0800   22      10/ 10/ 14 1009.0R
SHEBOYGAN LAKESH 0800   28      30/ 25/ 27 1008.8R
PORT WASHINGTON  0824   30      40/ 21/ 27 1008.8R
MILWAUKEE LAKESH 0800   31      30/ 23/ 27   N/A
KENOSHA   LAKESH 0800   33      40/ 19/ 22 1005.8R
$$

TC  - TEMPERATURE IN CELSIUS
VSB - VISIBILITY IN STATUTE MILES
WCI - WIND CHILL INDEX
HX  - HEAT INDEX




USA.gov is the U.S. government's official web portal to all federal, state and local government web resources and services.